GW1572 Weather Reports


Display with metric or nautical units.
time (UTC)temp
F
wind
direction
speed
MPH
gust
MPH
rain 1hr
in
rain 24hr
in
rain mn
in
humidity
%
barometer
mb
20260502164244 55 290 4.0 4.0 0.00 0.00 0.00 53 1008.8
20260502163631 53 216 7.0 8.0 0.00 0.00 0.00 51 1008.8
20260502163054 54 228 3.0 3.0 0.00 0.00 0.00 52 1008.8
20260502162442 54 274 5.0 7.0 0.00 0.00 0.00 55 1008.8
20260502161816 53 267 3.0 4.0 0.00 0.00 0.00 54 1008.8
20260502161221 55 222 6.0 8.0 0.00 0.00 0.00 48 1008.8
20260502160623 55 260 4.0 6.0 0.00 0.00 0.00 51 1008.8
20260502151833 52 222 4.0 4.0 0.00 0.00 0.00 57 1009.1
20260502151241 53 208 3.0 4.0 0.00 0.00 0.00 54 1008.8
20260502150650 52 239 6.0 8.0 0.00 0.00 0.00 56 1008.8
20260502130631 42 274 0.0 0.0 0.00 0.00 0.00 98 1009.4
20260502123635 40 283 0.0 0.0 0.00 0.00 0.00 99 1009.1
20260502122440 39 264 0.0 1.0 0.00 0.00 0.00 99 1009.4
20260502121222 40 242 0.0 0.0 0.00 0.00 0.00 99 1009.1
20260502120644 39 240 0.0 0.0 0.00 0.00 0.00 99 1009.1
20260502115451 39 292 0.0 0.0 0.00 0.00 0.00 99 1009.1
20260502114813 38 269 0.0 0.0 0.00 0.00 0.00 99 1009.1
20260502114232 38 247 0.0 0.0 0.00 0.00 0.00 99 1009.1
20260502113611 38 261 0.0 0.0 0.00 0.00 0.00 99 1009.1
20260502113039 38 261 0.0 0.0 0.00 0.00 0.00 99 1009.1
20260502112437 38 273 0.0 0.0 0.00 0.00 0.00 99 1009.1
20260502111828 38 253 0.0 0.0 0.00 0.00 0.00 99 1008.8
20260502111226 38 259 0.0 0.0 0.00 0.00 0.00 99 1008.8
20260502110017 38 273 0.0 0.0 0.00 0.00 0.00 99 1008.8
20260502105418 37 289 0.0 0.0 0.00 0.00 0.00 99 1008.8
20260502104829 37 268 0.0 0.0 0.00 0.00 0.00 99 1008.8
20260502104217 37 263 0.0 0.0 0.00 0.00 0.00 99 1008.8
20260502103635 37 253 0.0 0.0 0.00 0.00 0.00 99 1008.4
20260502103043 37 257 0.0 0.0 0.00 0.00 0.00 99 1008.8
20260502102419 37 263 0.0 0.0 0.00 0.00 0.00 99 1009.1
20260502101846 37 275 0.0 0.0 0.00 0.00 0.00 99 1009.1
20260502100630 37 283 0.0 0.0 0.00 0.00 0.00 99 1009.1
20260502091252 37 279 0.0 0.0 0.00 0.00 0.00 99 1009.1
20260502090624 37 275 0.0 0.0 0.00 0.00 0.00 99 1009.1
20260502071224 39 273 0.0 0.0 0.00 0.00 0.00 99 1008.8
20260502070652 39 200 0.0 0.0 0.00 0.00 0.00 99 1008.8
20260502070035 38 267 0.0 0.0 0.00 0.00 0.00 99 1008.8
20260502063651 38 280 0.0 0.0 0.00 0.00 0.00 99 1008.8
20260502063042 38 275 0.0 0.0 0.00 0.00 0.00 99 1009.1
20260502061814 37 282 0.0 0.0 0.00 0.00 0.00 99 1009.1
20260502061249 37 278 0.0 0.0 0.00 0.00 0.00 99 1009.1
20260502060622 37 341 0.0 0.0 0.00 0.00 0.00 99 1009.1
20260502060047 37 272 0.0 0.0 0.00 0.00 0.00 98 1009.1
20260502055448 37 277 0.0 0.0 0.00 0.00 0.00 98 1009.1
20260502054820 37 274 0.0 0.0 0.00 0.00 0.00 98 1009.1
20260502054251 37 274 0.0 0.0 0.00 0.00 0.00 98 1009.1
20260502053021 37 268 0.0 0.0 0.00 0.00 0.00 98 1009.4
20260502052415 37 267 0.0 0.0 0.00 0.00 0.00 98 1009.4
20260502051826 38 341 0.0 0.0 0.00 0.00 0.00 98 1009.4
20260502051220 37 259 0.0 0.0 0.00 0.00 0.00 98 1009.4
20260502050628 37 272 0.0 0.0 0.00 0.00 0.00 97 1009.4
20260502050039 38 269 0.0 0.0 0.00 0.00 0.00 97 1009.4
20260502045433 38 267 0.0 0.0 0.00 0.00 0.00 97 1009.4
20260502044838 38 341 0.0 0.0 0.00 0.00 0.00 97 1009.1
20260502043629 38 274 0.0 0.0 0.00 0.00 0.00 97 1009.4
20260502043043 38 270 0.0 0.0 0.00 0.00 0.00 97 1009.4
20260502042435 39 268 0.0 0.0 0.00 0.00 0.00 96 1009.4
20260502041810 39 272 0.0 0.0 0.00 0.00 0.00 96 1009.4
20260502041217 39 270 0.0 0.0 0.00 0.00 0.00 96 1009.4
20260502040649 40 264 0.0 0.0 0.00 0.00 0.00 96 1009.4
20260502040019 40 258 0.0 0.0 0.00 0.00 0.00 96 1009.4
20260502035442 40 266 0.0 0.0 0.00 0.00 0.00 95 1009.4
20260502034810 40 270 0.0 0.0 0.00 0.00 0.00 95 1009.4
20260502034246 40 341 0.0 0.0 0.00 0.00 0.00 95 1009.1
20260502033649 40 269 0.0 0.0 0.00 0.00 0.00 94 1009.1
20260502033012 41 256 0.0 0.0 0.00 0.00 0.00 94 1009.1
20260502032426 41 334 0.0 0.0 0.00 0.00 0.00 93 1009.1
20260502031841 41 263 0.0 0.0 0.00 0.00 0.00 93 1009.4
20260502031213 42 275 0.0 0.0 0.00 0.00 0.00 93 1009.1
20260502030616 42 261 0.0 0.0 0.00 0.00 0.00 92 1009.1
20260502030046 42 268 0.0 0.0 0.00 0.00 0.00 92 1009.1
20260502025414 42 264 0.0 0.0 0.00 0.00 0.00 92 1009.4
20260502024827 43 261 0.0 0.0 0.00 0.00 0.00 91 1009.4
20260502024219 43 268 0.0 0.0 0.00 0.00 0.00 91 1009.1
20260502023624 43 261 0.0 0.0 0.00 0.00 0.00 91 1009.4
20260502023047 43 259 0.0 0.0 0.00 0.00 0.00 91 1009.1
20260502022427 43 249 0.0 0.0 0.00 0.00 0.00 90 1009.1
20260502021812 44 251 0.0 0.0 0.00 0.00 0.00 89 1008.8
20260502021234 44 253 0.0 0.0 0.00 0.00 0.00 88 1008.8
20260502020614 44 260 0.0 0.0 0.00 0.00 0.00 87 1008.8
20260502020036 44 266 0.0 0.0 0.00 0.00 0.00 86 1008.4
20260502015431 44 264 0.0 0.0 0.00 0.00 0.00 87 1008.4
20260502014842 45 264 0.0 0.0 0.00 0.00 0.00 86 1008.4
20260502014227 45 269 0.0 0.0 0.00 0.00 0.00 85 1008.1
20260502013620 46 260 0.0 0.0 0.00 0.00 0.00 85 1008.1
20260502013036 46 258 0.0 0.0 0.00 0.00 0.00 84 1008.1
20260502012450 46 271 0.0 0.0 0.00 0.00 0.00 82 1008.1
20260502011841 47 266 0.0 0.0 0.00 0.00 0.00 81 1008.1
20260502011224 48 286 0.0 0.0 0.00 0.00 0.00 79 1007.7
20260502010625 49 316 1.0 1.0 0.00 0.00 0.00 75 1007.7
20260502010053 49 237 3.0 4.0 0.00 0.00 0.00 73 1007.7
20260502005446 50 269 1.0 1.0 0.00 0.00 0.00 75 1007.7
20260502004843 50 239 1.0 1.0 0.00 0.00 0.00 71 1007.4
20260502004227 50 248 1.0 2.0 0.00 0.00 0.00 70 1007.4
20260502003649 51 246 1.0 3.0 0.00 0.00 0.00 70 1007.1
20260502002449 52 213 4.0 7.0 0.00 0.00 0.00 68 1007.1
20260502001832 52 212 4.0 4.0 0.00 0.00 0.00 68 1007.1
20260502001246 53 224 6.0 9.0 0.00 0.00 0.00 67 1006.7
20260502000031 54 201 7.0 9.0 0.00 0.00 0.00 67 1006.7
20260501235453 54 239 4.0 6.0 0.00 0.00 0.00 70 1006.4
20260501234840 54 268 2.0 2.0 0.00 0.00 0.00 72 1006.0
20260501234253 54 245 2.0 3.0 0.00 0.00 0.00 72 1005.7
20260501233644 54 243 4.0 4.0 0.00 0.00 0.00 71 1005.7
20260501233024 55 233 3.0 3.0 0.00 0.00 0.00 69 1005.4
20260501232442 56 256 3.0 3.0 0.00 0.00 0.00 66 1005.4
20260501231817 55 264 5.0 8.0 0.00 0.00 0.00 68 1005.4
20260501231255 55 232 4.0 6.0 0.00 0.00 0.00 66 1005.7
20260501230650 56 268 8.0 9.0 0.00 0.00 0.00 67 1005.7
20260501230036 56 186 4.0 4.0 0.00 0.00 0.00 66 1005.4
20260501225415 56 266 2.0 2.0 0.00 0.00 0.00 70 1005.7
20260501224827 56 277 2.0 2.0 0.00 0.00 0.00 69 1005.4
20260501224233 56 235 3.0 3.0 0.00 0.00 0.00 70 1005.0
20260501223616 56 231 3.0 3.0 0.00 0.00 0.00 70 1005.0
20260501223053 56 277 4.0 6.0 0.00 0.00 0.00 68 1005.4
20260501222451 56 279 2.0 3.0 0.00 0.00 0.00 68 1005.0
20260501221839 56 249 4.0 4.0 0.00 0.00 0.00 69 1005.4
20260501221246 56 346 5.0 7.0 0.00 0.00 0.00 70 1005.4
20260501220645 56 250 4.0 6.0 0.00 0.00 0.00 70 1005.0
20260501220021 55 282 1.0 2.0 0.00 0.00 0.00 70 1005.0
20260501215415 55 306 2.0 2.0 0.00 0.00 0.00 70 1005.0
20260501214238 55 264 2.0 2.0 0.00 0.00 0.00 71 1005.0
20260501213041 55 283 2.0 2.0 0.00 0.00 0.00 73 1005.0
20260501211829 55 280 2.0 2.0 0.00 0.00 0.00 73 1005.0
20260501211210 55 254 2.0 3.0 0.00 0.00 0.00 73 1005.0
20260501210617 55 259 3.0 3.0 0.00 0.00 0.00 72 1004.7
20260501210030 55 231 3.0 4.0 0.00 0.00 0.00 71 1004.7
20260501205421 55 289 2.0 3.0 0.00 0.00 0.00 69 1005.0
20260501204849 55 283 4.0 4.0 0.00 0.00 0.00 73 1004.7
20260501203622 56 288 2.0 3.0 0.00 0.00 0.00 71 1004.7
20260501202444 57 271 6.0 8.0 0.00 0.00 0.00 72 1005.0
20260501201809 57 29 5.0 7.0 0.00 0.00 0.00 72 1005.0
20260501201239 57 239 5.0 7.0 0.00 0.00 0.00 71 1004.7
20260501200048 58 245 7.0 8.0 0.00 0.00 0.00 69 1004.4
20260501194853 59 347 6.0 8.0 0.00 0.00 0.00 67 1004.4
20260501194230 59 228 5.0 7.0 0.00 0.00 0.00 69 1004.0
20260501193623 58 217 4.0 6.0 0.00 0.00 0.00 67 1004.0
20260501193039 59 250 3.0 4.0 0.00 0.00 0.00 66 1004.0
20260501192423 59 270 4.0 6.0 0.00 0.00 0.00 65 1004.4
20260501191236 59 247 4.0 4.0 0.00 0.00 0.00 63 1004.0
20260501190645 59 260 5.0 6.0 0.00 0.00 0.00 66 1004.0
20260501190012 60 266 4.0 7.0 0.00 0.00 0.00 62 1004.4
20260501185428 60 301 3.0 3.0 0.00 0.00 0.00 61 1004.0
20260501184841 61 335 2.0 2.0 0.00 0.00 0.00 57 1004.0
20260501184223 61 212 4.0 6.0 0.00 0.00 0.00 56 1003.7
20260501183648 61 291 4.0 6.0 0.00 0.00 0.00 57 1003.7
20260501182421 62 317 4.0 4.0 0.00 0.00 0.00 54 1003.7
20260501181823 64 270 5.0 8.0 0.00 0.00 0.00 53 1004.0
20260501181238 64 330 5.0 7.0 0.00 0.00 0.00 51 1003.7
20260501180653 63 356 2.0 2.0 0.00 0.00 0.00 53 1003.7
20260501180037 63 266 3.0 4.0 0.00 0.00 0.00 55 1003.7
20260501172428 63 306 4.0 4.0 0.00 0.00 0.00 50 1003.7